Regional Weather Roundup
Issued by NWS Albany, NY

Home | Current Version | Previous Version | Text Only | Print | Product List | Glossary On
Versions: 1 2 3 4 5 6 7 8 9 10 11 12 13 14 15 16 17 18 19 20 21 22 23 24 25 26 27
000
ASUS41 KALY 270010
RWRALY

NEW YORK STATE HOURLY WEATHER ROUNDUP
NATIONAL WEATHER SERVICE ALBANY NY
800 PM EDT WED APR 26 2017

NOTE: "FAIR" INDICATES FEW OR NO CLOUDS BELOW 12,000 FEET WITH NO
SIGNIFICANT WEATHER AND/OR NO OBSTRUCTIONS TO VISIBILITY.

NYZ032-033-038>043-046>054-057>066-NYZ062>081-082-084-270100-
EAST


CITY           SKY/WX    TMP DP  RH WIND       PRES   REMARKS
ALBANY         CLOUDY    65  56  72 W3        29.78R
GLENS FALLS    PTCLDY    64  54  69 N5        29.77R
POUGHKEEPSIE   CLOUDY    60  56  86 CALM      29.79S
NEWBURGH       CLOUDY    59  59 100 CALM      29.81S FOG
MONTGOMERY     CLOUDY    60  56  86 CALM      29.78F
WHITE PLAINS   CLOUDY    59  55  87 CALM      29.80R
ISLIP          DRIZZLE   60  57  89 SE3       29.80R
NEW YORK CITY  CLOUDY    60  57  89 NE5       29.80R FOG
CENTRAL PARK   CLOUDY    59  58  96 NE3       29.82S FOG
$$

NYZ005>009-017-018-044>046-055-056-270100-
CENTRAL


CITY           SKY/WX    TMP DP  RH WIND       PRES   REMARKS
FULTON         CLEAR     67  55  65 E5        29.73R
SYRACUSE       PTCLDY    67  57  70 E8        29.72R
ROME           CLEAR     65  56  72 SE9       29.76R
ELMIRA         CLEAR     71  53  52 S6        29.72S
BINGHAMTON     CLEAR     67  54  63 S5        29.77R
MONTICELLO     CLOUDY    57  55  94 SE3       29.82R
$$

NYZ026>034-041>043-087-270100-
NORTH


CITY           SKY/WX    TMP DP  RH WIND       PRES   REMARKS
WATERTOWN      CLEAR     68  58  70 N3        29.71S
FORT DRUM      NOT AVBL
OGDENSBURG     FAIR      63  56  78 NE8       29.75S
MASSENA        CLEAR     61  55  81 E5        29.78R
SARANAC LAKE   MOCLDY    62  56  80 E5        29.77R
PLATTSBURGH    CLOUDY    60  54  80 CALM      29.76S
$$

NYZ001>004-010>016-019>021-085-270100-
WEST


CITY           SKY/WX    TMP DP  RH WIND       PRES   REMARKS
NIAGARA FALLS  CLEAR     66  54  65 NE7       29.66S
BUFFALO        MOCLDY    68  56  65 N8        29.66S
DUNKIRK        PTCLDY    66  57  72 E3        29.66S
JAMESTOWN      CLEAR     72  52  49 S8        29.71S
WELLSVILLE     CLEAR     72  52  49 S6        29.76R
ROCHESTER      PTCLDY    69  56  62 E7        29.69S
PENN YAN       CLEAR     69  56  62 E3        29.72F
$$

             KEY
       WCI = WIND CHILL INDEX
       VSB = VISIBILITY
       HX  = HEAT INDEX
$$




USA.gov is the U.S. government's official web portal to all federal, state and local government web resources and services.